Accueil
METAR-TAF:

METAR-TAF

Aéroports :

Kwethluk, Alaska, États-Unis

latitude: 60-47-25N, longitude: 161-26-37W, altitude: 9 m

Observation

Le bulletin a été fait il y a 11 minutes, à 12:56 UTC
Vent 3 kt de nord-est
Température -19°C
Humidité 77%
Pression 1011 hPa
Visibilité: 16.1 km
Ciel couvert à une hauteur de 10000 ft

METAR: PFKW 291256Z AUTO 04003KT 10SM OVC100 M19/M22 A2986 RMK AO2 SLP113 T11891222 FZRANO

Heure: 04:07 (13:07 UTC)


TAF: absent

Observations et prévisions météorologiques de plus de 4000 aéroports (messages METAR et TAF).

Les stations disponibles sont représentées par des disques jaunes et rouges sur la carte.

Passer la souris dessus pour voir le nom de la station.

Cliquer dessus pour voir les observations et prévisions météorologiques.

Pour changer de carte: cliquez sur les boutons verts avec une croix noire pour zoomer, sur le bouton vert avec un tiret pour effectuer un zoom arrière, ou sur les flèches vertes pour les cartes adjacentes.


METAR-TAF: